Terminal Aerodrome Forecast
Issued by NWS

Home | Current Version | Previous Version | Text Only | Print | Product List | Glossary On
Versions: 1 2 3 4 5 6 7 8 9 10 11 12 13 14 15 16 17 18 19 20 21 22 23 24
000
FTUS43 KLSX 242300
TAFUIN
TAF
KUIN 242339Z 2500/2524 06005KT P6SM BKN250
     FM250300 13005KT P6SM OVC250
     FM251300 16012KT P6SM VCSH BKN100
     FM251800 18012KT P6SM SCT100 BKN250=

USA.gov is the U.S. government's official web portal to all federal, state and local government web resources and services.